Regional Weather Roundup
Issued by NWS Columbia, SC

Home | Current Version | Previous Version | Text Only | Print | Product List | Glossary On
Versions: 1 2 3 4 5 6 7 8 9 10 11 12 13 14 15 16 17 18 19 20 21 22 23 24 25 26 27
000
ASUS42 KCAE 261710
RWRCAE
REGIONAL WEATHER ROUNDUP
NATIONAL WEATHER SERVICE COLUMBIA SC
100 PM EDT SUN MAR 26 2017

NOTE: "FAIR" INDICATES FEW OR NO CLOUDS BELOW 12,000 FEET WITH NO
SIGNIFICANT WEATHER AND/OR OBSTRUCTIONS TO VISIBILITY.

NOT ALL STATIONS ARE QUALITY CONTROLLED BY THE NATIONAL
WEATHER SERVICE. USE DATA WITH CAUTION...ESPECIALLY
DEWPOINT OBSERVATIONS.

SCZ001>056-GAZ040-063>065-077-261800-
...UPSTATE SOUTH CAROLINA...

CITY           SKY/WX    TMP DP  RH WIND       PRES   REMARKS
ANDERSON       CLOUDY    69  58  67 S8        30.15F
LIBERTY        CLOUDY    65  58  77 SW5       30.16F
SPARTANBURG    CLOUDY    61  55  82 S3        30.18F
CLEMSON        PTSUNNY   67  57  70 VRB3      30.17F
GREENVILLE     CLOUDY    66  59  78 S7        30.17F
GREENWOOD      CLOUDY    67  57  70 S10       30.18F
GREER          CLOUDY    62  59  90 S5        30.17F
ROCK HILL      PTSUNNY   71  55  56 SW10G20   30.18F
CHESTER        CLOUDY    72  52  49 S12G20    30.18F
LAURENS        DRIZZLE   66  59  77 SW13      30.18F


...CENTRAL SOUTH CAROLINA...

CITY           SKY/WX    TMP DP  RH WIND       PRES   REMARKS
COLUMBIA APT   PTSUNNY   77  55  46 S12G18    30.17F
COLUMBIA OWENS MOSUNNY   76  54  46 S10G22    30.19F
MCENTIRE ANGB  PTSUNNY   76  55  47 SE9       30.18F
ORANGEBURG     MOSUNNY   75  55  49 S12       30.19F
SUMTER SHAW    MOSUNNY   75  54  47 S10       30.17F
NEWBERRY       CLOUDY    72  59  64 SW6       30.20F
AIKEN          PTSUNNY   73  55  53 S12G17    30.21S
BARNWELL       FAIR      79  59  50 SE10      30.17F
MANNING        FAIR      73  52  46 S3G12     30.21F
CAMDEN         CLOUDY    73  54  49 SE7G14    30.20F
LANCASTER      PTSUNNY   72  54  53 S13G18    30.19F
WINNSBORO      MOSUNNY   72  55  56 S15       30.18F


...EASTERN AND COASTAL SOUTH CAROLINA...

CITY           SKY/WX    TMP DP  RH WIND       PRES   REMARKS
MYRTLE BEACH   PTSUNNY   72  55  56 S8        30.24S
N MYRTLE BCH   PTSUNNY   72  57  59 E7        30.23F
CONWAY         PTSUNNY   73  50  43 SE6       30.22F
MARION         CLOUDY    72  46  40 S8        30.22F
HARTSVILLE     FAIR      77  52  41 S12       30.20F
FLORENCE       CLOUDY    75  53  46 SW12      30.21F
DARLINGTON     CLOUDY    74  54  49 S10       30.20F
CHARLESTON APT MOSUNNY   78  52  40 S12G20    30.20F
MOUNT PLEASANT FAIR      75  54  46 SE8       30.21F
WALTERBORO     MOSUNNY   75  55  50 S10G22    30.20F
BEAUFORT       MOSUNNY   77  60  55 S10       30.20F


...EASTERN GEORGIA...

CITY           SKY/WX    TMP DP  RH WIND       PRES   REMARKS
AUGUSTA BUSH F CLOUDY    76  58  53 S8        30.16F
AUGUSTA DANIEL CLOUDY    74  55  51 S13       30.17F
THOMSON        CLOUDY    73  57  57 SW9       30.21F
WASHINGTON     FAIR      75  63  64 S12G17    30.15F
CLAXTON        FAIR      78  62  57 E6        30.17F
SYLVANIA       PTSUNNY  N/A N/A N/A S5        30.18F
STATESBORO     PTSUNNY   77  60  55 S5        30.17F
SAVANNAH       PTSUNNY   76  57  51 S10       30.19F


...SOUTHERN NORTH CAROLINA...

CITY           SKY/WX    TMP DP  RH WIND       PRES   REMARKS
CHARLOTTE      PTSUNNY   70  54  56 S16       30.19F
MONROE         CLOUDY    72  51  47 S10       30.18F
WADESBORO      PTSUNNY   73  53  48 SE6       30.19F
ROCKINGHAM     CLOUDY    73  54  52 SE9G16    30.20F
RUTHERFORDTON  CLOUDY    58  58 100 S7        30.19F
ASHEVILLE      PTSUNNY   62  54  74 S10       30.17S

$$




USA.gov is the U.S. government's official web portal to all federal, state and local government web resources and services.